Погода в Тымлате

Россия / Камчатский край     59°29′22″N   163°11′18″E
темп.,
°C
ветер,
м/с
пор.,
м/с
влажн.,
%
обл.,
%
осадки,
мм/ч
давл.,
гПа
погр.,
м
28 июля, ср
ср2800:00+12сз6108175 1.6 996250
03:00+13зсз468499 0.0 997112
06:00+12зсз4986100 0.1 999227
09:00+14сз4774100 0.0 1000395
12:00+16ссз7964100 0.1 1001735
15:00+18сз91152100 0.3 10021099
18:00+18сз795325 0.3 10021063
21:00+14сз466790 0.0 100490
29 июля, чт
чт2900:00+11сз22725 0.0 100513
03:00+10сз33705 0.0 100528
06:00+10сз11725 0.0 100614
09:00+13ссв016243 0.0 1006276
12:00+14вюв4362100 0.0 1007423
15:00+13юв2265100 0.0 1007157
18:00+13юв1167100 0.0 100781
21:00+12ююз1170100 0.0 100711
30 июля, пт
пт3000:00+11сз1174100 0.0 100710
03:00+11всв1174100 0.1 100710
06:00+10зюз0077100 0.3 100752
09:00+10зюз1182100 0.4 1007118
12:00+10зсз2282100 0.8 1007175
15:00+10зюз2279100 0.3 1007137
18:00+12зюз227182 0.3 1007203
21:00+11с237217 0.0 100735
31 июля, сб
сб3100:00+8сз58716 0.0 1007202
03:00+7сз588193 0.0 1008266
06:00+8сз588199 0.1 1008596
09:00+10ссз911708 0.0 10091068
12:00+11с911638 0.0 10081288
15:00+11ссз896192 0.0 10081378
18:00+12с795725 0.0 10071115
21:00+10ссз47655 0.0 1008222
1 августа, вс
вс100:00+8зсз45670 0.0 100887
03:00+7зсз45690 0.0 100779
06:00+7зсз456899 0.0 1007112
09:00+12ссз575490 0.0 1007725
12:00+14ссз6850100 0.0 10071020
15:00+15сз91045100 0.0 10061319
18:00+14сз8104878 0.0 10071092
21:00+11сз6115857 0.0 1008305